STARLINK-3938 (52566 NORAD) Tracking and Keplerian Element Data
This shows tracking and keplerian element data for the satellite.
Feedback or suggestion? Click here.
Element | Value |
Catalog | 52566 |
Name | STARLINK-3938 |
Epoch Orbit | 130 |
Epoch Day | 167.08334491 |
Epoch Year | 2022 |
RAAN | 132.3464 |
Inclination | 53.2176 |
Eccentricity | 0.0001785 |
Argument of Perigee | 41.1701 |
Mean Anonmoly | 198.6955 |
Mean Motion | 15.34809879 |
Decay Rate | -0.00824444 |
L1 | 1 52566U 22051AK 22167.08334491 -.00824444 00000+0 -26029-1 0 9991 |
L2 | 2 52566 53.2176 132.3464 0001785 41.1701 198.6955 15.34809879 1309 |
Live tracking and technical data element details for STARLINK-3938 (NORAD 52566). STARLINK-3938 can be tracked NOW for your location showing map with azimuth and elevation plus other details from your city location.
Track the satellite on the map from your city or location and see movement details for azimuth, elevation, latitude, longitude, range, height, and movement on the map or in text.
IsCatalogInMostPopularTable: catalog: 52566, numindb: 3
Update: records affected: 1
GetName: 52566 STARLINK-3938
Hit Count: updated at: Sat, 25 Jun 2022 04:41:56 GMT